Location: Bednik
(45.3500°N, 16.3833°E)
Time: 05:14:57
(UTC+00:00)

Cosmos 1867 - Pass Details

Date: 08 August 2020
Orbit: 777 x 798 km, 65.0° (Epoch: 23 September)

Event Time Altitude Azimuth Distance (km) Brightness Sun altitude
Rises 19:16:32 0° 181° (S) 3,263 6.4 -10.7°
Reaches altitude 10° 19:19:13 10° 170° (S) 2,343 5.6 -11.1°
Maximum altitude 19:23:44 28° 112° (ESE) 1,453 4.4 -11.7°
Drops below altitude 10° 19:28:18 10° 55° (NE) 2,368 5.9 -12.3°
Sets 19:31:01 0° 44° (NE) 3,305 6.7 -12.7°
